Regional Weather Roundup
Issued by NWS

Home | Current Version | Previous Version | Graphics & Text | Print | Product List | Glossary On
Versions: 1 2 3 4 5 6 7 8 9 10 11 12 13 14 15 16 17 18 19 20 21 22 23 24 25 26 27 28 29 30 31 32 33 34 35 36 37 38 39 40 41 42 43 44 45 46 47 48 49 50
000
ASUS43 KLMK 170510
RWRKY
KENTUCKY REGIONAL WEATHER ROUNDUP
NATIONAL WEATHER SERVICE LOUISVILLE KY
100 AM EDT WED SEP 17 2014

NOTE "FAIR" INDICATES FEW OR NO CLOUDS BELOW 12,000 FEET
WITH NO SIGNIFICANT WEATHER AND/OR OBSTRUCTIONS TO VISIBILITY.

KYZ001>023-026-027-061>063-070>075-170600-
WESTERN AND SOUTH CENTRAL KENTUCKY

CITY           SKY/WX    TMP DP  RH WIND       PRES   REMARKS
PADUCAH        CLEAR     52  49  89 CALM      30.09F FOG
HENDERSON      CLEAR     48  45  87 CALM      30.11S
OWENSBORO      CLEAR     55  52  90 CALM      30.10F
HOPKINSVILLE   CLEAR     53  53 100 N3        30.08F
BOWLING GREEN  CLEAR     57  53  86 N3        30.09S
GLASGOW        CLEAR     55  55  99 NE3       30.08F
$$

KYZ024-025-028>034-038-045-046-053-170600-
NORTH CENTRAL KENTUCKY

CITY           SKY/WX    TMP DP  RH WIND       PRES   REMARKS
LOUISVILLE/SDF CLEAR     56  52  86 NE3       30.10F
LOUISVILLE/LOU CLEAR     55  51  86 CALM      30.11F
FORT KNOX      CLEAR     52  51  94 NE3       30.09F
$$

KYZ035>037-039>044-047>052-055>060-089>105-170600-
NORTHEAST KENTUCKY

CITY           SKY/WX    TMP DP  RH WIND       PRES   REMARKS
LEXINGTON      CLEAR     53  49  86 N3        30.10F
COVINGTON      PTCLDY    56  49  77 CALM      30.10F
FRANKFORT      CLEAR     50  48  93 CALM      30.10S
$$

KYZ054-064>069-076>088-106>120-170600-
SOUTHEAST KENTUCKY

CITY           SKY/WX    TMP DP  RH WIND       PRES   REMARKS
JACKSON        CLOUDY    57  55  93 CALM      30.09S FOG
LONDON         PTCLDY    58  55  90 N6        30.08F
SOMERSET       NOT AVBL
MIDDLESBORO    CLEAR     59  58  96 CALM      30.07S
MONTICELLO     PTCLDY    54  54 100 CALM      30.09F FOG
$$



USA.gov is the U.S. government's official web portal to all federal, state and local government web resources and services.